Showing default

TIROS 4, 226

Orbit data source: Space-Track

TIROS 4, 226 is a payload satellite owned by GSFC (US) in LEO that was launched on Thu, 08 Feb 1962 UTC via a THOR DELTA launch vehicle from the Air Force Eastern Test Range (AFETR). Payload-class satellites include a variety of spacecraft equipped with specific instruments for various scientific and technological missions. These include communications satellites like Starlink; space stations such as the ISS; scientific satellites like the Hubble; Earth observation satellites from companies like Planet Labs, Umbra, and HawkEye 360; GPS; miniature CubeSats for education and research; and military/defense satellites.

Loading next visibility...
Identifier
226, 1962-002A
Orbit
LEO
Country
Flag of USUS
Related business
Manufacturer
RCA/East Windsor
Mission
Non-operational spacecraft
Bus & Motor
TIROS, Unknown motor
Mass
129 kg wet, 129 kg dry
Launch date (UTC)
1962-02-08 (64 years ago)
Launch vehicle
THOR DELTA
Launch site
Air Force Eastern Test Range (AFETR)
Object type
Payload
Rocket body
Debris
Shape & HBR
Unknown
Radar Cross Section
Medium (>0.1 m² and <1 m²)

Expand to show TLE details & history
Last TLE update: 14 hours ago

TLE from 14 hours ago
0 TIROS 4
1 00226U 62002A   26178.11189435 -.00000007  00000-0  43913-4 0  9998
2 00226  48.2975 325.8401 0076396 293.0592  66.2266 14.47189154369887
Epoch: 2026-06-27T02:41Z
TLE epoch observation values (Epoch: 2026-06-27T02:41:07.671Z)
Latitude
-0.00005°
Longitude
10.32737°
Altitude
713.643 km
Speed
7.511 km/s
True Right ascension
21h 43m 21s
True Declination
0° 00' 00"
Sunlit
Object was in full shadow at epoch
Visualization orbit readout
Latitude
Unknown
Longitude
Unknown
Altitude
Unknown
Speed
Unknown
Apparent Right ascension
Unknown
Apparent Declination
Unknown
Sunlit
N/A
Visualization observer readout
Local Sidereal Time
04:04:10
Azimuth
Unknown
Elevation
Unknown
Doppler factor
Unknown
Orbital elements
Apogee altitude
790.211 km
Perigee altitude
681.515 km
Semi-major axis
7,114 km
Eccentricity
0.00764
Inclination
48.2975°
RAAN
325.8401°
Arg. of periapsis
293.0592°
True anomaly
67.03082°
Mean anomaly
66.2266°
Eccentric anomaly
66.6284°
Mean motion
3.6172 °/min
Orbital period
99.52 mins
BSTAR
0.000043913
Loading maneuver chart data...
Computing Atmospheric mass density...
Loading historical data...
Loading historical data...
Loading historical data...
Loading historical data...
Loading historical data...
Loading historical data...
Loading historical data...
Other satellites on launch #2 in the year 1962 (1962-02-08 UTC)

Documentation

Showing up to 5 results
|